LVS073 SADF-SADF

Flight info

Callsign LVS073
Flight time 0h 3m
Altitude 1000
Route LOCAL
Aircraft BR23/L-SFG/C

Departure

Time 2026-04-24 03:50
Airport San Fernando Airport (SADF)

Arrival

Time 2026-04-24 03:53
Airport San Fernando Airport (SADF)
Time Latitude Longitude Altitude Speed Heading
2026-04-24 03:44 -34.45846 -58.59060 22 ft 0 kts 320°
2026-04-24 03:47 -34.45823 -58.59074 22 ft 9 kts 335°
2026-04-24 03:47 -34.45822 -58.59120 22 ft 7 kts 244°
2026-04-24 03:47 -34.45839 -58.59159 22 ft 4 kts 242°
2026-04-24 03:47 -34.45863 -58.59218 22 ft 11 kts 242°
2026-04-24 03:48 -34.45892 -58.59283 22 ft 7 kts 246°
2026-04-24 03:48 -34.45910 -58.59324 22 ft 4 kts 239°
2026-04-24 03:48 -34.45933 -58.59375 22 ft 14 kts 240°
2026-04-24 03:48 -34.45997 -58.59524 22 ft 21 kts 243°
2026-04-24 03:49 -34.46021 -58.59656 22 ft 14 kts 314°
2026-04-24 03:49 -34.45955 -58.59677 22 ft 9 kts 45°
2026-04-24 03:49 -34.45802 -58.59497 22 ft 59 kts 43°
2026-04-24 03:49 -34.45428 -58.59053 85 ft 83 kts 44°
2026-04-24 03:50 -34.45023 -58.58567 279 ft 81 kts 44°
2026-04-24 03:50 -34.44636 -58.58099 508 ft 76 kts 44°
2026-04-24 03:50 -34.44272 -58.57660 748 ft 72 kts 32°
2026-04-24 03:50 -34.43875 -58.57835 970 ft 71 kts 306°
2026-04-24 03:51 -34.43528 -58.58366 1012 ft 89 kts 316°
2026-04-24 03:51 -34.43339 -58.59111 1010 ft 106 kts 259°
2026-04-24 03:51 -34.43870 -58.59750 1014 ft 111 kts 215°
2026-04-24 03:51 -34.44493 -58.60280 983 ft 108 kts 219°
2026-04-24 03:52 -34.45049 -58.60772 950 ft 93 kts 219°
2026-04-24 03:52 -34.45530 -58.61199 938 ft 81 kts 218°
2026-04-24 03:52 -34.46051 -58.61329 796 ft 81 kts 150°
2026-04-24 03:52 -34.46485 -58.60926 569 ft 75 kts 137°
2026-04-24 03:53 -34.46669 -58.60441 284 ft 62 kts 57°
2026-04-24 03:53 -34.46326 -58.60109 149 ft 63 kts 41°
2026-04-24 03:53 -34.46012 -58.59747 56 ft 60 kts 44°
2026-04-24 03:53 -34.45757 -58.59443 22 ft 39 kts 44°
2026-04-24 03:54 -34.45676 -58.59306 22 ft 5 kts 143°
2026-04-24 03:54 -34.45777 -58.59238 22 ft 15 kts 151°
2026-04-24 03:54 -34.45842 -58.59174 22 ft 10 kts 82°
2026-04-24 03:54 -34.45818 -58.59113 22 ft 6 kts 64°
2026-04-24 03:55 -34.45821 -58.59074 22 ft 5 kts 152°
2026-04-24 03:55 -34.45840 -58.59062 22 ft 0 kts 152°